Flag for U.S.A. Weather past 2 weeks in Mason, Ohio, U.S.A.

40 °F

Light rain. Overcast.

Feels Like: 36 °F
Forecast: 40 / 48 °F
Wind: 6 mph from North

Location: Butler County Regional Airport

Current Time: Nov 29, 2015 at 6:41:41 AM

Latest Report: Nov 29, 2015 at 5:53 AM

Visibility: 8 mi

Pressure: 30.28 "Hg

Humidity: 93%

Dew point: 38 °F

Location of MasonLocation

Historic Weather in Mason — Graph


Mason temperature yesterday

Maximum temperature yesterday: 57 °F (at 1:00 AM)
Minimum temperature yesterday: 41 °F (at 11:53 PM)
Average temperature yesterday: 47 °F

Past Weeks' High & Low Weather Summary

High67 °F (Nov 15, 2:53 PM)100% (Nov 18, 2:53 PM)30.57 "Hg (Nov 18, 2:53 PM)
Low18 °F (Nov 22, 11:53 PM)24% (Nov 20, 2:53 PM)29.70 "Hg (Nov 18, 4:53 PM)
Average45 °F67%30.24 "Hg
* Reported Nov 14 4:53 AM — Nov 29 4:53 AM, Mason, Weather by CustomWeather, © 2015

Note: Actual official high and low records may vary slightly from our data, if they occured in-between our weather recording intervals... More about our weather records


Mason weather history for previous 24 hours

Time TempWeatherWind HumidityBarometerVisibility
4:53 AM
Sun, Nov 29
40 °FLight rain. Low clouds.5 mph93%30.26 "Hg7 mi
3:53 AM40 °FLow clouds.6 mph93%30.26 "Hg8 mi
2:53 AM40 °FLight rain. Fog.6 mph93%30.27 "Hg5 mi
12:53 AM41 °FLight rain. Fog.7 mph93%30.26 "Hg4 mi
11:53 PM
Sat, Nov 28
41 °FLow clouds.7 mph93%30.27 "Hg10 mi
10:53 PM42 °FLow clouds.8 mph92%30.26 "Hg10 mi
9:53 PM42 °FLight rain. Low clouds.6 mph92%30.27 "Hg9 mi
8:53 PM42 °FRain. Fog.7 mph96%30.27 "Hg5 mi
8:00 PM42 °FLight rain. Fog.6 mph96%30.26 "Hg3 mi
6:53 PM43 °FMostly cloudy.8 mph93%30.26 "Hg10 mi
5:53 PM43 °FRain. Mostly cloudy.9 mph93%30.25 "Hg7 mi
5:01 PM44 °FRain. Fog.7 mph93%30.24 "Hg2 mi
4:53 PM44 °FRain. Fog.6 mph93%30.25 "Hg2 mi
3:53 PM44 °FFog.8 mph96%30.22 "Hg6 mi
3:02 PM44 °FLight rain. Fog.8 mph96%30.21 "Hg2 mi
1:53 PM45 °FLight rain. Fog.6 mph93%30.23 "Hg2 mi
12:53 PM45 °FLight rain. Low clouds.6 mph93%30.25 "Hg7 mi
11:53 AM44 °FLight rain. Fog.8 mph96%30.26 "Hg5 mi
11:00 AM44 °FLight rain. Fog.9 mph96%30.27 "Hg3 mi
9:53 AM44 °FLight rain. Fog.8 mph96%30.27 "Hg2 mi
8:53 AM44 °FLight rain. Fog.6 mph96%30.26 "Hg1 mi
7:53 AM44 °FLight rain. Low clouds.6 mph96%30.25 "Hg10 mi
6:53 AM45 °FLight rain. Low clouds.8 mph97%30.25 "Hg7 mi
6:04 AM46 °FLight rain. Fog.9 mph96%30.24 "Hg3 mi
Weather by CustomWeather, © 2015

See weather overviewHow to use our weather pages